STARLINK-3004 (48880 NORAD) Tracking and Keplerian Element Data

This shows tracking and keplerian element data for the satellite.

Feedback or suggestion? Click here.




ElementValue
Catalog48880
NameSTARLINK-3004
Epoch Orbit364
Epoch Day287.91667824
Epoch Year2021
RAAN55.6552
Inclination97.5217
Eccentricity0.0008728
Argument of Perigee272.6585
Mean Anonmoly35.2314
Mean Motion15.16435398
Decay Rate-0.00025974
L11 48880U 21059B 21287.91667824 -.00025974 00000-0 -13368-2 0 9990
L22 48880 97.5217 55.6552 0008728 272.6585 35.2314 15.16435398 3645

Live tracking and technical data element details for STARLINK-3004 (NORAD 48880). STARLINK-3004 can be tracked NOW for your location showing map with azimuth and elevation plus other details from your city location.

Track the satellite on the map from your city or location and see movement details for azimuth, elevation, latitude, longitude, range, height, and movement on the map or in text.







IsCatalogInMostPopularTable: catalog: 48880, numindb: 28
Update: records affected: 1



GetName: 48880 STARLINK-3004

Hit Count: updated at: Tue, 19 Oct 2021 09:42:55 GMT